This demonstration page uses our WeatherBlox Daily Observations layout. Learn more.

Left ArrowRight Arrow

38.83388, -104.82136

Hourly Observations for May 7, 2018

Temp ( °F °C ) Dew Point ( °F °C ) Humidity (%) Winds ( mph kmh ) Pressure ( in mb ) Visibility ( mi km ) Precip ( " mm )
12:58 am 00:58 Clear 56 13.5 30 -1.1 37 37 Calm 29.79 1009 10 16 0.00 0.00
1:58 am 01:58 Clear 54 12.2 31 -0.6 42 42 Calm 29.79 1009 10 16 0.00 0.00
2:58 am 02:58 Clear 53 11.4 33 0.4 47 47 NNW 5 7 29.78 1009 10 16 0.00 0.00
3:58 am 03:58 Clear 51 10.5 34 0.9 52 52 NW 6 9 29.77 1008 10 16 0.00 0.00
4:58 am 04:58 Clear 51 10.4 35 1.7 55 55 NW 3 6 29.76 1008 10 16 0.00 0.00
5:58 am 05:58 Sunny 51 10.3 32 -0.1 49 49 NNW 3 6 29.77 1008 10 16 0.00 0.00
6:58 am 06:58 Sunny 52 10.9 33 0.8 50 50 Calm 29.76 1008 10 16 0.00 0.00
7:58 am 07:58 Sunny 53 11.9 36 2.4 52 52 Calm 29.78 1008 10 16 0.00 0.00
8:58 am 08:58 Sunny 60 15.4 38 3.1 44 44 Calm 29.75 1007 10 16 0.00 0.00
9:58 am 09:58 Mostly Sunny 65 18.2 39 3.7 38 38 Calm 29.72 1007 10 16 0.00 0.00
10:58 am 10:58 Partly Cloudy 69 20.3 36 2.3 30 30 ESE 6 9 29.72 1007 10 16 0.00 0.00
11:58 am 11:58 Mostly Sunny 73 22.8 21 -6.1 14 14 Calm 29.69 1005 10 16 0.00 0.00
12:58 pm 12:58 Mostly Cloudy 73 22.7 22 -5.8 14 14 SE 8 13 29.68 1005 10 16 0.00 0.00
1:58 pm 13:58 Mostly Cloudy 74 23.4 19 -7 13 13 SSE 5 7 29.66 1004 10 16 0.00 0.00
2:58 pm 14:58 Mostly Cloudy 73 22.7 17 -8.1 12 12 Calm 29.65 1004 10 16 0.00 0.00
3:21 pm 15:21 Partly Cloudy 73 23 18 -8 12 12 NW 12 19 29.65 1004 10 16 0.00 0.00
3:58 pm 15:58 Mostly Sunny 74 23.4 19 -7.4 12 12 SSE 5 7 29.63 1004 10 16 0.00 0.00
5:58 pm 17:58 Mostly Cloudy 72 22.1 20 -6.4 14 14 E 5 7 29.65 1004 10 16 0.00 0.00
6:58 pm 18:58 Mostly Cloudy 71 21.5 22 -5.8 16 16 ESE 12 19 29.62 1003 10 16 0.00 0.00
7:58 pm 19:58 Mostly Cloudy 69 20.7 20 -6.8 15 15 N 3 6 29.63 1004 10 16 0.00 0.00
8:58 pm 20:58 Cloudy 69 20.4 18 -7.8 14 14 N 6 9 29.62 1003 10 16 0.00 0.00
9:58 pm 21:58 Mostly Cloudy 69 20.3 18 -8 14 14 ENE 3 6 29.61 1003 10 16 0.00 0.00
10:58 pm 22:58 Mostly Cloudy 68 19.8 18 -7.8 15 15 NW 5 7 29.59 1002 10 16 0.00 0.00
11:58 pm 23:58 Mostly Cloudy 66 19.1 20 -6.9 17 17 Calm 29.56 1001 10 16 0.00 0.00

Powered by AerisWeather